Regional Weather Roundup
Issued by NWS

Home | Current Version | Previous Version | Text Only | Print | Product List | Glossary On
Versions: 1 2 3 4 5 6 7 8 9 10 11 12 13 14 15 16 17 18 19 20 21 22 23 24 25 26 27 28 29 30 31 32 33 34 35 36 37 38 39 40 41 42 43 44 45 46 47 48 49 50
000
ASUS42 KTBW 301410
RWRFL
FLORIDA REGIONAL WEATHER ROUNDUP
NATIONAL WEATHER SERVICE TAMPA BAY RUSKIN FL
900 AM EST FRI JAN 30 2015

NOTE: "FAIR" INDICATES FEW OR NO CLOUDS BELOW 12,000 FEET WITH NO
SIGNIFICANT WEATHER AND/OR OBSTRUCTIONS TO VISIBILITY.


FLZ001>010-012>015-112-114-115-301500-
PANHANDLE FLORIDA

CITY           SKY/WX    TMP DP  RH WIND       PRES   REMARKS
PENSACOLA      SUNNY     46  35  65 N14G26    30.33R WCI  40
PENSACOLA NAS  PTSUNNY   47  37  68 N12G21    30.32R WCI  42
MILTON NAS     PTSUNNY   45  35  68 N12       30.34R WCI  39
CRESTVIEW      SUNNY     47  37  68 N8G18     30.34R WCI  43
VALPARAISO     MOSUNNY   48  40  72 N12       30.30R WCI  43
MARY ESTHER    SUNNY     49  36  60 N18G24    30.30R WCI  42
TRI COUNTY     FAIR      48  38  68 N13G18    30.31R WCI  43
PANAMA CITY    FAIR      50  41  71 N14G21    30.27R WCI  45
TYNDALL AFB    MOSUNNY   54  45  71 N12       30.26R
APALACHICOLA   MOSUNNY   59  52  77 N13       30.23R

STATION/POSITION SKY/WX   TEMP    WIND        PRES    WAVE   SWELL
                          AIR SEA DIR/SP/G            HT/PER HT/PER
                          (F)     (DEG/KT/KT) (MB)    (FT/S) (FT/S)
30.1N   87.6W              51 62  360/ 19/ 23 1025.5R   3/ 4
29.2N   88.2W              57 68   20/ 23/ 29 1025.9R   5/ 5
28.7N   86.0W              65 69  360/ 17/ 21 1023.6R   3/ 5
PANAMA CITY BEAC           52 60  360/  9/ 17 1024.7R
CAPE SAN BLAS    NOT AVBL
TOWER C                    58     350/ 22/ 24 1022.8R
28.5N   84.5W              69 67  270/ 14/ 16 1022.5F   2/ 4

$$
FLZ011-016>038-118-127-128-134-139-239-301500-
NORTH FLORIDA

CITY           SKY/WX    TMP DP  RH WIND       PRES   REMARKS
MARIANNA       MOSUNNY   48  39  71 N13       30.27R WCI  43
TALLAHASSEE    PTSUNNY   55  45  68 N15       30.23R
PERRY          CLOUDY    56  55  94 NW7       30.21R
CROSS CITY       N/A     59  57  93 NW5       30.19R
LAKE CITY      CLOUDY    52  52 100 W6        30.18S
GAINESVILLE    CLOUDY    54  53  97 W8        30.19R
MAYPORT NAS    PTSUNNY   57  53  86 W8        30.16R
JACKSONVILLE   CLOUDY    56  54  93 W12       30.16R
JAX NAS        CLOUDY    59  53  80 W9        30.17R
JAX CRAIG      PTSUNNY   57  52  83 W8        30.16R
JAX CECIL      PTSUNNY   55  54  94 W12       30.18R
FERNANDINA BEA FAIR      61  55  82 W10       30.14R
ST AUGUSTINE   CLOUDY    55  52  89 SW7       30.17R

STATION/POSITION SKY/WX   TEMP    WIND        PRES    WAVE   SWELL
                          AIR SEA DIR/SP/G            HT/PER HT/PER
                          (F)     (DEG/KT/KT) (MB)    (FT/S) (FT/S)
SHELL POINT                57     340/  9/ 12   N/A
KEATON BEACH               57     340/  6/ 10 1023.0R
CEDAR KEY                  59     250/  5/  7 1022.4S
FERNANDINA                 54 55  270/ 11/ 13 1020.3R
30.7N   81.3W                 56                N/A     2/11   2/11
MAYPORT                    56 57  270/ 10/ 12 1021.1R
31.4N   80.9W              54 53  280/ 16/ 17 1019.7R   3/ 5   2/10
ST AUGUSTINE               54     250/  6/  8 1021.8R

$$
FLZ040-043>046-052-053-057-058-063-144-301500-
INTERIOR CENTRAL FLORIDA

CITY           SKY/WX    TMP DP  RH WIND       PRES   REMARKS
OCALA          PTSUNNY   48  46  93 S3        30.18F FOG
THE VILLAGES     N/A     52  52 100 S5        30.10S FOG
LEESBURG       PTSUNNY   54  52  93 SW3       30.21R
SANFORD        PTSUNNY   58  50  75 W6        30.19F
ORLANDO EXEC   MOSUNNY   60  52  74 W6        30.20S
ORLANDO INTL   PTSUNNY   58  51  78 SW3       30.21F
KISSIMMEE      SUNNY     55  50  82 CALM      30.22S
WINTER HAVEN   SUNNY     57  50  77 SW5       30.23S
LAKELAND       SUNNY     52  48  87 CALM      30.22F
BARTOW         SUNNY     52  48  87 CALM      30.23S
OKEECHOBEE     SUNNY     54  52  94 N3        30.24R

$$
FLZ041-047-054-059-064-141-147-301500-
EAST CENTRAL FLORIDA

CITY           SKY/WX    TMP DP  RH WIND       PRES   REMARKS
ORMOND BEACH   PTSUNNY   52  48  87 W6        30.19S
DAYTONA BEACH  CLOUDY    54  50  86 SW7       30.19F
DELAND         CLOUDY   N/A N/A N/A SW6       30.20S
NEW SMYRNA BEA SUNNY     54  48  82 CALM      30.20S
JFK SPACE CTR  SUNNY     57  49  75 W7        30.20R
TITUSVILLE     MOSUNNY   55  48  76 SW6       30.21S
CAPE CANAVERAL SUNNY     58  50  74 W7        30.20S
PATRICK AFB    SUNNY     58  50  73 W6        30.21R
MELBOURNE      SUNNY     57  49  74 W6        30.22R
VERO BEACH     SUNNY     59  50  72 NW5       30.22S
FT PIERCE      SUNNY     58  52  80 W3        30.22S
STUART         MOSUNNY   57  50  77 NW8       30.23R

STATION/POSITION SKY/WX   TEMP    WIND        PRES    WAVE   SWELL
                          AIR SEA DIR/SP/G            HT/PER HT/PER
                          (F)     (DEG/KT/KT) (MB)    (FT/S) (FT/S)
28.5N   80.2W              62 68  300/ 14/ 19 1022.5R
28.9N   78.5W              69 74  270/ 17/ 21 1021.2R   5/ 9   5/ 9
TRIDENT PIER               58 62  260/  4/  5 1022.3F
28.4N   80.5W                 62                N/A     2/11   2/11
27.6N   80.2W                 65                N/A     3/10   2/12

$$
FLZ050-056-061-142-242-148-248-149-249-151-251-155-255-
160-260-301500-
WEST CENTRAL FLORIDA

CITY           SKY/WX    TMP DP  RH WIND       PRES   REMARKS
CRYSTAL RIVER  CLOUDY    48  46  93 CALM      30.20S
INVERNESS      FAIR      50  50 100 CALM      30.20F FOG
BROOKSVILLE    PTSUNNY   51  50  96 S3        30.22S FOG
ZEPHYRHILLS    FAIR      52  50  93 CALM      30.23S
CLEARWATER     FAIR      59  57  93 S5        30.22S
TAMPA INTL     MOSUNNY   59  54  83 S5        30.23R
TAMPA EXEC     SUNNY     55  50  82 CALM      30.23S
PLANT CITY       N/A    N/A N/A N/A MISG        N/A
MACDILL AFB    SUNNY     59  59  99 SW5       30.23R
PETER O KNIGHT SUNNY     61  55  82 S3        30.23R
ST PETERSBURG  SUNNY     59  54  83 W3        30.21S
SARASOTA       SUNNY     57  52  83 CALM      30.22S
VENICE         FAIR      59  50  72 CALM      30.25S

STATION/POSITION SKY/WX   TEMP    WIND        PRES    WAVE   SWELL
                          AIR SEA DIR/SP/G            HT/PER HT/PER
                          (F)     (DEG/KT/KT) (MB)    (FT/S) (FT/S)
CEDAR KEY                  59     250/  5/  7 1022.4S
28.5N   84.5W              69 67  270/ 14/ 16 1022.5F   2/ 4
27.3N   84.3W                 72                N/A     2/ 3
CLEARWATER BEACH           60 60  190/  6/  7 1023.0R
MIDDLE TAMPA BAY           59     200/  5/  6 1023.7F
VENICE                     60 63   70/  3/  3 1023.6S

$$
FLZ066-069-070-075>078-162-262-165-265-301500-
SOUTHWEST FLORIDA AND KEYS

CITY           SKY/WX    TMP DP  RH WIND       PRES   REMARKS
PUNTA GORDA    SUNNY     58  49  72 NE3       30.26R
FT MYERS       SUNNY     62  49  62 N7        30.24R
SOUTHWEST INTL SUNNY     60  49  66 N8        30.24R
NAPLES         SUNNY     60  54  80 CALM      30.23R
MARCO ISLAND   CLOUDY    61  52  72 CALM      30.23R
IMMOKALEE      SUNNY    N/A N/A N/A CALM      30.25R
MARATHON       SUNNY     66  58  75 N12       30.21R
KEY WEST NAS   MOSUNNY   68  57  68 N13       30.22R
KEY WEST INTL  SUNNY     68  57  68 N9        30.22R

STATION/POSITION SKY/WX   TEMP    WIND        PRES    WAVE   SWELL
                          AIR SEA DIR/SP/G            HT/PER HT/PER
                          (F)     (DEG/KT/KT) (MB)    (FT/S) (FT/S)
VENICE                     60 63   70/  3/  3 1023.6S
NAPLES                     61 72   50/  2/  3 1024.2R
26.0N   85.6W              68 72  340/  8/ 10 1024.2R   2/ 5   2/ 5
DRY TORTUGAS               67      30/ 11/ 13 1022.8R
NW FL BAY                  62      20/ 10/ 12 1022.7R
SAND KEY                   67      20/ 17/ 19 1023.0R
SOMBRERO KEY               66     360/ 16/ 17 1023.4R
LONG KEY                   63 64  360/ 11/ 13 1023.1R
MOLASSES REEF              65 75  360/ 16/ 18 1022.5R

$$
FLZ067-068-071>074-168-172>174-301500-
SOUTHEAST FLORIDA

CITY           SKY/WX    TMP DP  RH WIND       PRES   REMARKS
W PALM BEACH   MOSUNNY   63  53  70 NW9       30.21R
FT LAUDER-EXEC PTSUNNY   61  50  67 NW6       30.22R
FT LAUDERDALE  MOSUNNY   63  52  67 NW6       30.21R
POMPANO BEACH  MOSUNNY   65  51  60 NW10      30.22R
PEMBROKE PINES SUNNY     64  51  62 NW9       30.23R
OPA LOCKA      MOSUNNY   65  50  58 NW8       30.22R
MIAMI          MOSUNNY   66  51  58 NW5       30.23R
WEST KENDALL   SUNNY     64  53  67 NW10      30.23R
HOMESTEAD      SUNNY     64  52  65 NW13      30.22R

STATION/POSITION SKY/WX   TEMP    WIND        PRES    WAVE   SWELL
                          AIR SEA DIR/SP/G            HT/PER HT/PER
                          (F)     (DEG/KT/KT) (MB)    (FT/S) (FT/S)
PORT EVERGLADES            63     290/  8/ 11 1022.9
VIRGINIA KEY               65 67  330/  4/  7 1023.5R



USA.gov is the U.S. government's official web portal to all federal, state and local government web resources and services.